Theta_e
339 340 340 338 340 339 341 338 339 339 340 341 342 342 340 341 341 338 338 346 344 344 343 343 341 341 344 348 348 349 350 349 347 345 344 343 342 343 343 341 340 338 336
345 341 340 342 338 341 340 339 338 338 340 342 342 343 344 341 342 340 339 340 344 344 344 344 344 342 343 346 348 348 349 349 348 346 343 342 338 342 343 343 340 337 337
344 346 343 338 343 342 346 342 340 340 343 342 341 344 341 344 343 341 340 337 340 344 345 344 344 344 343 345 346 348 348 348 348 346 344 342 341 342 343 342 342 340 340
352 349 346 345 342 347 341 342 341 341 340 338 338 341 343 342 339 341 341 337 339 337 342 344 345 344 345 347 345 347 347 345 347 346 344 342 342 343 343 343 343 342 341
351 352 348 347 351 343 344 342 339 340 337 338 337 342 341 340 340 339 339 336 340 340 338 340 342 343 343 346 346 346 346 345 346 345 345 344 344 344 343 342 341 341 340
353 350 351 347 352 346 343 342 341 341 339 337 334 339 337 340 340 337 337 339 337 338 338 337 336 335 341 344 346 347 345 346 346 347 346 344 343 343 343 341 342 341 340
351 352 348 350 350 345 344 346 344 341 338 337 337 334 335 337 337 338 338 337 336 337 337 336 336 336 335 340 342 345 346 345 345 346 346 344 342 343 342 342 343 341 340
353 351 349 348 348 346 347 346 342 336 335 339 333 329 324 328 333 334 335 334 333 335 337 336 335 335 336 334 336 344 346 345 345 345 346 342 342 342 343 343 342 341 339
353 352 349 350 348 346 344 344 343 337 335 338 336 330 321 319 325 332 333 333 333 334 333 335 334 335 336 334 336 340 344 345 345 345 345 343 343 343 344 342 341 340 338
352 350 349 349 348 346 345 342 342 341 338 333 336 336 334 330 321 320 329 331 333 331 330 332 332 332 334 332 335 339 339 341 344 346 346 345 343 343 343 342 341 337 337
352 349 349 350 348 347 348 345 344 340 339 335 333 332 330 331 330 324 319 323 329 331 332 332 331 332 333 330 330 335 337 338 340 342 342 343 343 343 341 340 338 337 335
346 347 347 348 349 348 347 345 344 342 340 337 337 333 330 326 325 325 322 322 323 326 330 331 331 332 333 335 337 336 334 336 336 335 336 338 339 342 341 339 338 336 334
343 345 346 349 349 349 346 346 343 341 338 337 336 332 332 330 330 328 324 322 321 326 327 331 332 335 335 335 334 335 335 332 330 329 330 331 335 338 338 337 337 333 331
345 348 349 350 348 347 345 344 342 339 340 336 335 334 332 331 333 330 326 323 319 321 325 324 331 333 333 335 337 337 332 329 326 325 325 327 331 331 331 332 331 331 332
349 350 349 347 346 344 343 342 340 338 338 337 335 334 333 333 333 332 331 328 323 317 319 325 325 331 333 333 335 334 333 326 326 323 323 325 326 327 327 327 327 328 328
347 347 346 345 341 342 341 340 339 338 336 336 334 333 332 332 333 332 331 330 328 323 318 325 328 330 332 334 332 336 333 327 323 322 323 323 323 324 323 323 323 325 325
345 343 343 341 337 337 338 338 337 335 335 333 333 332 332 334 333 332 332 329 328 327 322 325 328 330 330 330 333 330 332 329 324 322 323 321 319 319 319 320 321 322 323
343 341 341 337 336 337 338 336 335 335 332 331 332 332 329 334 331 332 330 327 328 328 326 320 323 324 327 330 332 331 331 331 327 323 321 319 317 316 316 316 317 317 317
341 339 339 334 335 335 334 336 335 332 334 332 332 330 330 331 327 329 330 328 329 329 328 321 319 322 322 327 325 325 324 323 323 322 318 317 316 316 316 315 314 314 312
339 339 338 335 333 335 334 334 333 333 333 330 330 328 326 324 325 326 328 328 329 326 326 319 319 318 320 322 321 318 316 319 319 322 320 319 317 317 315 313 313 313 312
338 336 335 333 335 332 331 333 332 333 332 329 329 328 326 325 321 319 325 326 327 326 322 319 318 317 316 317 316 317 315 316 317 318 317 319 319 317 313 313 316 315 312
338 334 334 332 329 326 307 312 329 334 333 329 326 325 324 321 319 314 316 317 322 326 320 320 317 315 315 316 317 315 315 313 310 320 316 315 318 314 314 314 313 311 310
336 335 337 336 332 325 304 307 312 334 331 331 327 323 323 326 322 326 314 315 315 316 320 323 317 317 315 317 317 315 315 314 312 315 316 312 317 314 316 316 310 309 307
337 338 336 335 334 319 304 305 309 335 333 331 325 325 323 326 326 327 327 326 326 326 325 326 322 319 319 319 319 319 317 315 315 316 317 309 314 314 317 317 308 307 306
336 335 335 333 331 323 305 304 313 333 330 326 326 324 325 327 308 308 327 325 323 318 307 305 306 305 304 305 314 318 314 312 310 311 316 312 313 313 315 316 311 305 304
336 337 334 334 322 324 304 304 314 331 326 323 323 319 307 320 301 304 328 326 319 318 316 315 313 309 311 308 310 320 317 312 311 310 315 312 313 315 314 317 314 307 306
Wind_Speed
9 8 6 8 9 10 10 10 9 10 12 13 13 11 6 2 1 1 4 14 14 13 13 13 12 12 12 11 10 11 12 14 16 16 17 19 18 17 18 17 16 16 13
8 9 8 6 8 10 10 11 10 9 11 12 12 7 5 4 4 4 2 7 13 14 14 14 14 15 15 14 13 12 12 13 16 18 22 19 19 14 16 18 18 15 16
12 10 8 9 6 6 7 8 11 9 5 5 6 4 5 3 3 4 4 6 6 13 14 14 14 15 16 15 16 14 14 13 16 20 23 21 18 16 17 16 19 17 18
12 10 8 7 8 5 6 4 4 5 5 5 3 3 3 1 4 5 4 4 6 7 9 13 14 14 15 16 16 16 14 13 15 19 22 22 21 19 17 16 15 17 18
15 8 7 6 7 7 5 4 4 4 3 3 4 4 2 3 5 7 8 7 7 7 4 5 16 14 16 15 17 17 15 14 14 17 21 21 21 20 19 16 16 14 13
13 11 6 7 5 4 5 4 4 4 3 4 3 3 3 4 5 5 5 2 2 3 6 8 7 6 14 15 15 15 16 14 14 15 18 19 20 19 18 15 13 12 17
10 10 9 6 7 6 5 5 4 5 3 2 2 2 4 5 7 4 4 3 4 5 7 5 4 7 5 13 14 15 16 15 15 14 13 16 16 15 14 13 12 14 12
8 8 8 7 8 4 6 5 5 3 3 2 3 2 2 3 4 5 4 4 5 3 4 4 8 8 5 5 9 15 15 16 16 14 13 14 16 17 17 15 14 15 21
8 8 10 7 8 6 5 5 4 5 4 3 5 3 1 2 1 1 4 4 4 2 2 2 2 5 6 5 4 13 13 12 15 16 15 15 17 18 17 18 18 22 24
9 10 8 8 9 7 5 7 6 5 4 3 2 4 4 1 1 2 2 4 5 4 4 3 1 3 6 5 8 11 13 12 13 15 16 18 19 18 19 19 22 24 25
7 9 8 8 8 6 6 8 6 6 4 3 4 1 2 4 4 3 3 2 1 4 3 5 5 5 8 4 3 6 13 12 12 13 17 19 20 21 22 24 25 25 27
5 8 8 6 6 5 6 5 5 6 3 2 2 3 4 1 2 2 4 2 2 2 3 4 6 6 5 7 10 12 14 12 10 12 16 17 20 22 24 25 27 27 25
5 8 9 7 5 5 6 5 6 4 4 3 4 4 1 3 2 2 1 3 2 2 3 4 5 5 5 4 7 11 14 11 10 13 14 15 18 21 24 25 26 25 24
9 10 9 8 8 6 6 6 3 4 4 3 4 3 0 1 3 3 2 3 1 0 2 4 1 3 1 4 9 13 7 12 11 12 14 16 20 21 20 22 22 21 20
10 11 9 7 6 6 6 6 4 5 6 5 3 3 3 4 3 2 4 3 2 3 2 4 3 1 7 6 7 7 7 10 12 14 16 20 21 24 21 17 16 15 17
11 9 7 7 6 5 6 6 4 5 5 4 3 5 4 1 2 1 1 2 2 1 3 2 3 3 5 5 4 7 7 9 11 16 19 22 19 19 20 18 15 15 16
10 8 7 6 6 6 6 5 0 6 5 5 2 5 6 4 2 1 2 3 2 3 5 3 3 4 4 4 6 6 7 7 6 15 19 16 16 17 16 15 16 15 14
7 6 7 9 6 6 6 5 4 5 5 5 4 4 3 3 1 2 2 2 3 3 6 8 3 3 4 3 7 8 6 6 6 13 19 18 16 16 16 15 14 13 12
6 7 7 9 7 7 7 5 4 5 5 4 4 3 4 2 3 1 3 3 3 4 6 6 3 2 2 3 6 7 8 7 5 15 16 18 17 17 16 15 14 12 11
6 6 5 6 7 9 7 5 5 6 6 6 5 4 4 4 4 4 2 3 3 5 7 7 5 3 3 4 4 6 5 4 7 6 9 10 14 16 14 13 13 13 11
6 8 6 6 3 7 4 3 7 7 8 7 5 4 3 3 4 5 1 2 4 6 7 7 5 3 3 3 6 4 7 8 6 5 8 7 8 7 7 9 9 10 8
6 6 6 10 8 6 7 10 6 6 7 8 5 3 1 2 2 1 3 3 6 8 9 6 5 6 4 6 7 9 9 8 4 3 8 6 6 6 5 3 8 8 7
6 6 6 7 10 7 7 8 6 5 6 6 6 4 3 3 4 5 4 7 8 9 11 9 10 8 7 8 9 10 8 6 6 3 10 5 3 5 2 1 8 8 8
6 5 6 7 8 5 6 5 2 5 5 6 5 4 3 4 6 5 6 9 8 6 6 7 8 8 8 8 9 11 10 10 8 5 3 4 2 3 4 3 5 8 8
5 5 6 7 9 6 5 2 2 5 7 6 4 3 2 3 5 4 7 9 10 7 11 14 14 14 14 12 9 11 10 11 6 2 1 3 3 3 3 4 4 8 8
6 3 6 7 10 8 5 3 4 5 7 5 4 3 5 2 6 6 6 10 10 8 10 10 10 12 11 9 7 5 11 11 8 4 3 4 4 4 3 4 4 4 4
Wind_Direction
211 206 217 207 184 197 188 205 214 208 211 224 235 244 235 149 77 273 158 174 175 172 182 192 208 217 212 205 195 190 192 189 186 177 167 183 191 176 173 181 181 191 190
192 216 202 212 218 193 204 194 211 219 204 215 226 232 203 189 204 232 163 173 179 185 192 196 203 212 210 203 195 188 184 183 181 176 175 185 195 190 194 188 187 195 195
204 196 209 208 206 233 200 197 201 218 212 210 237 226 195 167 209 228 221 178 185 198 198 199 209 214 211 205 198 191 183 180 178 177 182 187 193 196 191 194 190 195 193
193 207 202 202 208 222 220 217 209 195 198 209 230 247 118 220 279 267 231 156 183 201 202 209 211 223 216 205 198 194 186 184 180 178 182 186 193 195 203 202 202 207 197
193 192 209 210 188 211 209 206 202 209 207 220 205 171 177 207 241 244 237 222 184 175 159 197 238 218 222 211 200 199 195 191 186 181 185 190 192 195 201 200 208 208 191
176 190 214 204 213 203 206 199 187 196 208 207 213 152 229 220 226 245 235 192 255 275 184 203 218 225 220 216 205 205 203 193 189 190 186 192 194 196 191 194 193 176 177
178 176 203 204 211 199 202 200 180 192 223 191 91 293 247 225 235 222 250 221 226 246 259 223 182 218 216 212 213 208 206 201 195 196 183 185 198 184 174 178 172 169 171
176 184 192 222 193 202 192 207 174 161 195 198 152 229 257 236 219 228 224 231 219 239 264 239 204 165 250 205 206 201 204 203 201 194 183 175 177 171 165 155 154 145 139
181 190 192 231 169 197 187 174 157 189 217 148 194 196 235 233 24 224 200 193 223 220 236 347 348 229 158 169 217 192 193 208 204 189 185 175 161 159 150 146 145 142 142
190 186 177 229 168 194 182 176 179 197 191 182 165 216 227 263 240 308 214 199 174 184 200 215 79 309 175 192 181 190 185 200 198 184 180 167 159 154 146 145 143 146 147
160 169 195 216 172 195 164 167 166 174 179 162 216 134 247 239 206 202 272 190 214 214 195 153 177 202 183 178 188 228 178 190 188 174 165 163 155 148 145 140 144 147 145
164 179 199 177 174 196 149 152 151 149 163 176 192 218 221 225 196 194 246 235 186 177 168 181 170 228 193 177 194 177 163 173 170 151 152 157 152 147 149 150 150 148 151
173 177 184 184 178 201 150 123 114 165 188 196 194 227 44 178 193 275 291 270 179 137 181 194 177 197 186 182 139 162 158 152 148 149 155 150 144 145 146 150 150 153 157
174 179 183 185 181 167 143 116 152 188 177 199 212 148 193 217 188 198 194 217 155 133 107 146 86 139 94 174 158 142 145 137 143 154 140 138 133 140 147 150 153 159 158
171 168 170 167 155 150 131 149 196 202 166 157 170 174 173 215 251 231 216 202 202 172 149 176 129 99 140 209 146 139 136 144 137 135 133 132 142 148 151 153 158 157 149
145 156 159 153 154 139 140 172 164 180 141 135 180 171 208 232 190 246 284 181 194 156 129 104 56 132 141 134 143 128 123 129 132 137 138 144 150 152 151 156 145 139 143
134 156 158 130 128 153 168 146 163 139 150 160 207 176 216 171 200 214 289 192 186 122 111 76 66 42 62 111 87 91 132 108 122 135 133 137 138 135 134 132 132 137 140
139 160 146 135 162 173 148 158 204 152 155 160 195 178 182 175 183 187 220 234 172 157 132 128 119 48 48 31 91 96 97 97 121 140 136 136 133 130 127 128 132 129 129
168 167 151 162 171 150 151 183 199 168 132 164 167 153 42 148 156 12 257 217 204 162 125 123 108 84 49 83 79 73 79 87 90 128 126 129 130 128 128 129 131 132 132
163 134 142 169 179 143 157 184 181 129 135 98 99 100 103 77 46 81 320 295 213 144 121 115 118 93 80 87 98 108 91 97 105 101 96 122 128 121 119 121 124 126 131
158 153 175 178 131 137 150 156 144 135 129 124 112 112 111 80 69 62 309 323 272 140 122 124 134 118 119 129 130 110 108 106 90 112 111 114 117 113 111 110 127 134 133
169 149 148 89 99 89 61 71 113 137 150 138 148 142 145 175 208 132 102 240 252 140 129 148 130 144 127 123 131 131 130 130 109 105 103 89 114 114 133 133 160 148 150
106 112 107 116 101 103 78 79 75 141 161 157 137 156 177 194 218 173 136 118 84 112 130 145 150 151 142 146 140 131 137 119 112 108 114 96 115 119 145 136 169 158 175
125 114 122 111 108 95 93 96 84 122 140 129 127 159 198 202 205 182 164 108 98 88 87 115 128 136 130 136 144 134 124 108 100 98 92 103 113 119 184 174 177 184 183
128 158 146 145 118 111 113 117 316 114 108 109 115 100 270 137 140 86 140 116 96 69 54 78 95 111 114 113 130 123 128 129 120 110 97 102 151 143 178 201 181 204 196
144 157 135 125 118 124 144 90 355 135 113 105 110 82 29 142 134 77 134 119 107 116 109 100 95 96 107 103 85 131 143 145 137 116 180 108 152 172 190 186 177 170 192